| time (UTC) | temp F | wind direction | speed knots | gust knots | rain 1hr in | rain 24hr in | rain mn in | humidity % | barometer mb |
| 20260831204518 | 90 | 227 | 1.7 | 7.8 | 0.00 | 0.00 | 0.00 | 54 | 1013.1 |
| 20260831203015 | 89 | 260 | 0.0 | 5.2 | 0.00 | 0.00 | 0.00 | 57 | 1013.3 |
| 20260831201512 | 90 | 198 | 1.7 | 5.2 | 0.00 | 0.00 | 0.00 | 56 | 1013.4 |
| 20260831200009 | 89 | 192 | 2.6 | 5.2 | 0.00 | 0.00 | 0.00 | 58 | 1013.5 |
| 20260831194507 | 88 | 263 | 0.9 | 3.5 | 0.00 | 0.00 | 0.00 | 60 | 1013.5 |
| 20260831193006 | 88 | 246 | 1.7 | 6.1 | 0.00 | 0.00 | 0.00 | 59 | 1013.6 |
| 20260831191504 | 87 | 261 | 1.7 | 6.1 | 0.00 | 0.00 | 0.00 | 59 | 1013.5 |
| 20260831190005 | 87 | 191 | 1.7 | 6.1 | 0.00 | 0.00 | 0.00 | 63 | 1013.6 |
| 20260831184618 | 86 | 263 | 0.0 | 3.5 | 0.00 | 0.00 | 0.00 | 64 | 1013.7 |
| 20260831183057 | 85 | 251 | 0.9 | 4.3 | 0.00 | 0.00 | 0.00 | 65 | 1013.8 |
| 20260831181600 | 85 | 257 | 1.7 | 3.5 | 0.00 | 0.00 | 0.00 | 66 | 1013.9 |
| 20260831181507 | 85 | 256 | 1.7 | 3.5 | 0.00 | 0.00 | 0.00 | 66 | 1013.9 |
| 20260831180053 | 84 | 320 | 0.9 | 3.5 | 0.00 | 0.00 | 0.00 | 67 | 1013.9 |
| 20260831174606 | 84 | 325 | 0.9 | 3.5 | 0.00 | 0.00 | 0.00 | 70 | 1013.9 |
| 20260831173054 | 84 | 273 | 2.6 | 7.0 | 0.00 | 0.00 | 0.00 | 65 | 1013.9 |
| 20260831171548 | 83 | 252 | 1.7 | 3.5 | 0.00 | 0.00 | 0.00 | 69 | 1013.9 |
| 20260831170045 | 82 | 211 | 0.0 | 5.2 | 0.00 | 0.00 | 0.00 | 69 | 1013.6 |
| 20260831164551 | 81 | 335 | 0.9 | 4.3 | 0.00 | 0.00 | 0.00 | 71 | 1013.5 |
| 20260831163039 | 80 | 306 | 0.9 | 5.2 | 0.00 | 0.00 | 0.00 | 74 | 1013.5 |
| 20260831161535 | 80 | 340 | 0.9 | 4.3 | 0.00 | 0.00 | 0.00 | 75 | 1013.2 |
| 20260831160031 | 78 | 308 | 2.6 | 7.0 | 0.00 | 0.00 | 0.00 | 76 | 1013.1 |
| 20260831154529 | 78 | 313 | 2.6 | 7.8 | 0.00 | 0.00 | 0.00 | 77 | 1013.0 |
| 20260831153024 | 77 | 300 | 3.5 | 7.0 | 0.00 | 0.00 | 0.00 | 78 | 1012.9 |
| 20260831151522 | 76 | 327 | 0.9 | 7.0 | 0.00 | 0.00 | 0.00 | 78 | 1012.6 |
| 20260831150021 | 74 | 346 | 2.6 | 8.7 | 0.00 | 0.00 | 0.00 | 80 | 1012.5 |
| 20260831144521 | 73 | 288 | 1.7 | 6.1 | 0.00 | 0.00 | 0.00 | 81 | 1012.7 |
| 20260831143021 | 73 | 350 | 1.7 | 7.8 | 0.00 | 0.00 | 0.00 | 81 | 1012.4 |
| 20260831141520 | 73 | 324 | 4.3 | 11.3 | 0.00 | 0.00 | 0.00 | 81 | 1012.2 |
| 20260831140019 | 73 | 349 | 3.5 | 7.0 | 0.00 | 0.00 | 0.00 | 82 | 1012.4 |
| 20260831134520 | 73 | 286 | 1.7 | 3.5 | 0.00 | 0.00 | 0.00 | 81 | 1012.3 |
| 20260831133018 | 73 | 254 | 1.7 | 4.3 | 0.00 | 0.00 | 0.00 | 80 | 1011.8 |
| 20260831131519 | 73 | 282 | 2.6 | 8.7 | 0.00 | 0.00 | 0.00 | 79 | 1011.4 |
| 20260831130016 | 74 | 325 | 3.5 | 14.8 | 0.00 | 0.00 | 0.00 | 79 | 1010.9 |
| 20260831124515 | 74 | 304 | 7.0 | 20.9 | 0.00 | 0.00 | 0.00 | 79 | 1011.4 |
| 20260831123014 | 74 | 327 | 8.7 | 16.5 | 0.00 | 0.00 | 0.00 | 81 | 1011.9 |
| 20260831121522 | 75 | 283 | 7.8 | 15.6 | 0.00 | 0.00 | 0.00 | 83 | 1012.3 |
| 20260831120015 | 75 | 213 | 7.0 | 13.9 | 0.00 | 0.00 | 0.00 | 84 | 1012.4 |
| 20260831114507 | 76 | 214 | 3.5 | 10.4 | 0.00 | 0.00 | 0.00 | 82 | 1011.4 |
| 20260831113006 | 76 | 232 | 5.2 | 12.2 | 0.00 | 0.00 | 0.00 | 82 | 1011.3 |
| 20260831111504 | 74 | 231 | 2.6 | 7.8 | 0.00 | 0.00 | 0.00 | 85 | 1010.8 |
| 20260831104603 | 74 | 257 | 3.5 | 7.8 | 0.00 | 0.00 | 0.00 | 86 | 1010.5 |
| 20260831103108 | 74 | 232 | 2.6 | 7.0 | 0.00 | 0.00 | 0.00 | 86 | 1010.4 |
| 20260831101601 | 74 | 252 | 1.7 | 6.1 | 0.00 | 0.00 | 0.00 | 86 | 1010.3 |
| 20260831100059 | 74 | 256 | 2.6 | 7.0 | 0.00 | 0.00 | 0.00 | 85 | 1010.1 |
| 20260831094607 | 75 | 284 | 1.7 | 5.2 | 0.00 | 0.00 | 0.00 | 83 | 1010.2 |
| 20260831093139 | 75 | 256 | 0.9 | 2.6 | 0.00 | 0.00 | 0.00 | 83 | 1009.9 |
| 20260831091553 | 75 | 278 | 1.7 | 4.3 | 0.00 | 0.00 | 0.00 | 83 | 1009.8 |
| 20260831090051 | 75 | 248 | 0.9 | 2.6 | 0.00 | 0.00 | 0.00 | 83 | 1009.5 |
| 20260831084630 | 75 | 281 | 0.9 | 2.6 | 0.00 | 0.00 | 0.00 | 84 | 1009.5 |
| 20260831083051 | 75 | 242 | 0.0 | 1.7 | 0.00 | 0.00 | 0.00 | 84 | 1009.3 |
| 20260831081548 | 75 | 232 | 0.0 | 2.6 | 0.00 | 0.00 | 0.00 | 84 | 1009.3 |
| 20260831080114 | 74 | 185 | 0.9 | 2.6 | 0.00 | 0.00 | 0.00 | 85 | 1009.3 |
| 20260831074549 | 74 | 286 | 0.0 | 1.7 | 0.00 | 0.00 | 0.00 | 85 | 1009.2 |
| 20260831073046 | 74 | 286 | 1.7 | 3.5 | 0.00 | 0.00 | 0.00 | 86 | 1009.2 |
| 20260831071549 | 73 | 297 | 0.9 | 1.7 | 0.00 | 0.00 | 0.00 | 87 | 1009.3 |
| 20260831070046 | 73 | 304 | 0.0 | 0.0 | 0.00 | 0.00 | 0.00 | 88 | 1009.6 |
| 20260831064552 | 73 | 304 | 0.0 | 0.9 | 0.00 | 0.00 | 0.00 | 87 | 1009.7 |
| 20260831063101 | 73 | 304 | 0.0 | 1.7 | 0.00 | 0.00 | 0.00 | 88 | 1009.7 |
| 20260831061542 | 74 | 327 | 0.0 | 1.7 | 0.00 | 0.00 | 0.00 | 86 | 1009.6 |
| 20260831060040 | 74 | 325 | 0.9 | 2.6 | 0.00 | 0.00 | 0.00 | 87 | 1009.3 |
| 20260831054538 | 74 | 300 | 0.9 | 1.7 | 0.00 | 0.00 | 0.00 | 88 | 1009.1 |
| 20260831053043 | 73 | 300 | 0.0 | 0.9 | 0.00 | 0.00 | 0.00 | 89 | 1009.0 |
| 20260831051540 | 74 | 300 | 0.0 | 1.7 | 0.00 | 0.00 | 0.00 | 88 | 1008.9 |
| 20260831050033 | 74 | 300 | 0.0 | 1.7 | 0.00 | 0.00 | 0.00 | 88 | 1008.9 |
| 20260831044532 | 75 | 300 | 0.0 | 1.7 | 0.00 | 0.00 | 0.00 | 86 | 1009.0 |
| 20260831043030 | 75 | 300 | 0.9 | 1.7 | 0.00 | 0.00 | 0.00 | 86 | 1009.1 |
| 20260831041530 | 76 | 300 | 0.0 | 0.9 | 0.00 | 0.00 | 0.00 | 86 | 1009.0 |
| 20260831040036 | 75 | 293 | 0.0 | 3.5 | 0.00 | 0.00 | 0.00 | 87 | 1009.1 |
| 20260831034528 | 76 | 308 | 0.9 | 2.6 | 0.00 | 0.00 | 0.00 | 88 | 1008.9 |
| 20260831033030 | 76 | 313 | 2.6 | 4.3 | 0.00 | 0.00 | 0.00 | 88 | 1008.9 |
| 20260831031527 | 77 | 309 | 0.0 | 1.7 | 0.00 | 0.00 | 0.00 | 87 | 1009.0 |
| 20260831030027 | 76 | 309 | 0.9 | 2.6 | 0.00 | 0.00 | 0.00 | 88 | 1008.9 |
| 20260831024527 | 77 | 303 | 0.0 | 0.0 | 0.00 | 0.00 | 0.00 | 87 | 1008.9 |
| 20260831023025 | 77 | 303 | 0.0 | 1.7 | 0.00 | 0.00 | 0.00 | 88 | 1008.8 |
| 20260831021523 | 79 | 261 | 0.0 | 0.9 | 0.00 | 0.00 | 0.00 | 85 | 1008.7 |
| 20260831020022 | 80 | 261 | 0.0 | 0.0 | 0.00 | 0.00 | 0.00 | 83 | 1008.5 |
| 20260831014523 | 82 | 261 | 0.0 | 0.0 | 0.00 | 0.00 | 0.00 | 78 | 1008.4 |
| 20260831013120 | 83 | 261 | 0.0 | 0.0 | 0.00 | 0.00 | 0.00 | 75 | 1008.3 |
| 20260831011523 | 85 | 261 | 0.0 | 0.0 | 0.00 | 0.00 | 0.00 | 72 | 1008.2 |
| 20260831010020 | 87 | 261 | 0.0 | 1.7 | 0.00 | 0.00 | 0.00 | 67 | 1008.1 |
| 20260831004518 | 89 | 261 | 0.0 | 0.0 | 0.00 | 0.00 | 0.00 | 61 | 1008.0 |
| 20260831003018 | 90 | 261 | 0.0 | 0.0 | 0.00 | 0.00 | 0.00 | 62 | 1008.1 |
| 20260831001517 | 90 | 261 | 0.0 | 1.7 | 0.00 | 0.00 | 0.00 | 62 | 1008.1 |
| 20260831000020 | 91 | 261 | 0.9 | 1.7 | 0.00 | 0.00 | 0.00 | 59 | 1008.1 |
| 20260830234510 | 91 | 261 | 0.0 | 1.7 | 0.00 | 0.00 | 0.00 | 59 | 1008.1 |
| 20260830233006 | 91 | 223 | 0.0 | 1.7 | 0.00 | 0.00 | 0.00 | 60 | 1008.1 |
| 20260830231507 | 91 | 223 | 0.0 | 2.6 | 0.00 | 0.00 | 0.00 | 61 | 1008.1 |
| 20260830230005 | 91 | 234 | 0.9 | 3.5 | 0.00 | 0.00 | 0.00 | 59 | 1008.1 |
| 20260830224504 | 90 | 243 | 0.0 | 5.2 | 0.00 | 0.00 | 0.00 | 61 | 1007.9 |
| 20260830221501 | 90 | 237 | 2.6 | 5.2 | 0.00 | 0.00 | 0.00 | 58 | 1007.9 |
| 20260830214558 | 89 | 256 | 2.6 | 7.0 | 0.00 | 0.00 | 0.00 | 58 | 1008.1 |
| 20260830213055 | 88 | 274 | 2.6 | 7.8 | 0.00 | 0.00 | 0.00 | 57 | 1008.0 |
| 20260830211556 | 87 | 216 | 5.2 | 11.3 | 0.00 | 0.00 | 0.00 | 57 | 1007.9 |